Retour au catalogue

FENGYUN 1C DEB

ActifSSO
NORAD 30837·DEBRIS·🇨🇳 China

Lancé May 10, 1999 depuis Taiyuan Satellite Launch Center

Loading…

Prochains Passages (prochaines 24 heures)

TLE

FraisSource: Space-Track

Époque: Sep 14, 2026, 04:27 UTC

1 30837U 99025AVX 26257.18602166  .00000331  00000-0  19243-3 0  9997
2 30837  98.7044 241.1993 0033597  68.2191 351.6886 14.14831239  7053

Suivez FENGYUN 1C DEB en temps réel avec AllMySat

Download on the App Store